Location: Lac Lasalle
(46.0398°N, 74.1576°W)
Time: 12:40:42
(UTC-04:00)

ISS - Pass Details

Date: 27 March 2019
Orbit: 408 x 410 km, 51.6° (Epoch: 20 April)

Event Time Altitude Azimuth Distance (km) Brightness Sun altitude
Rises 21:21:28 0° 283° (WNW) 2,337 1.4 -21.2°
Reaches altitude 10° 21:23:44 10° 295° (WNW) 1,476 0.2 -21.5°
Maximum altitude 21:26:41 29° 358° (N) 778 -2.2 -22.0°
Enters shadow 21:26:56 29° 8° (N) 785 -2.2 -22.0°
